DateTimeUTC,F1_A11,F1_S11,BsB_S11,BsG_S11,BsR_S11,BbsB_S11,BbsG_S11,BbsR_S11,BaB_A11,BaG_A11,BaR_A11,Tu_S11,T_S11,Uu_S11,U_S11,P_S11,T1_A11
2021-12-04T12:00:00Z,00000200,21000000,,,,,,,-000.01,0000.27,0000.07,19.2,26.0,,00.0,0634.6,31.0
2021-12-04T12:01:00Z,00000200,21000000,,,,,,,-000.08,-000.82,-000.24,19.2,26.0,,00.0,0634.7,31.0
2021-12-04T12:02:00Z,00000200,21000000,,,,,,,0000.40,0000.69,0000.05,19.2,26.1,,00.0,0634.6,31.0
2021-12-04T12:03:00Z,00000200,61000000,,,,,,,0000.15,0000.12,0000.22,19.2,26.1,,00.0,0634.6,31.0
2021-12-04T12:04:00Z,00000200,41000000,0000.28,0000.29,0000.41,0000.01,-000.40,0000.33,0000.10,0000.01,0000.17,19.3,25.9,,00.0,0635.4,31.0
2021-12-04T12:05:00Z,00000200,01000000,0000.46,-000.01,0000.08,-000.50,-000.31,0000.31,0000.22,0000.23,-000.02,19.2,25.8,,00.0,0635.4,31.0
2021-12-04T12:06:00Z,00000200,01000000,0000.52,0000.23,-000.34,-000.02,-000.52,-000.53,0000.15,0000.24,0000.37,19.2,25.8,,00.0,0635.4,30.9
2021-12-04T12:07:00Z,00000200,01000000,0000.98,0000.01,0000.15,-000.48,-000.13,-000.01,0000.11,-000.16,-000.42,19.1,25.7,,00.0,0635.3,30.9
2021-12-04T12:08:00Z,00000200,01000000,0000.06,0000.26,0000.02,0000.34,0000.22,0000.18,-000.38,-000.14,0000.00,19.1,25.7,,00.0,0635.3,31.0
2021-12-04T12:09:00Z,00000200,01000000,0001.38,0000.30,-000.19,0000.07,-000.11,-000.13,-000.05,-000.16,0000.04,19.1,25.7,,00.0,0635.3,31.0
2021-12-04T12:10:00Z,00000200,01000000,0000.14,0000.29,-000.04,-000.36,-000.38,0000.08,-000.03,0000.23,-000.05,19.2,25.7,,00.0,0635.3,31.0
2021-12-04T12:11:00Z,00000200,01000000,0001.15,0000.23,0000.03,-000.27,-000.02,0000.32,0000.15,-000.20,0000.03,19.2,25.7,,00.0,0635.3,31.0
2021-12-04T12:12:00Z,00000200,01000000,0000.68,0000.23,-000.37,-000.17,0000.01,0000.29,0000.28,0000.52,0000.02,19.2,25.7,,00.0,0635.3,31.0
2021-12-04T12:13:00Z,00000200,01000000,0001.29,0000.34,-000.16,-000.24,0000.23,-000.01,0000.12,-000.02,0000.23,19.3,25.8,,00.0,0635.3,31.0
2021-12-04T12:14:00Z,00000200,01000000,0000.86,-000.12,-000.21,0000.03,-000.04,0000.06,-000.10,-000.01,-000.22,19.3,25.8,,00.0,0635.3,31.0
2021-12-04T12:15:00Z,00000200,01000000,0000.59,-000.04,-000.09,-000.15,-000.21,-000.01,0000.15,0000.12,0000.52,19.4,25.8,,00.0,0635.3,31.0
2021-12-04T12:16:00Z,00000200,01000000,0000.42,0000.07,-000.04,-000.55,-000.13,-000.20,-000.21,0000.01,-000.36,19.4,25.8,,00.0,0635.3,31.1
2021-12-04T12:17:00Z,00000200,01000000,-000.01,0000.51,-000.13,-000.62,-000.09,-000.16,0000.37,0000.33,0000.32,19.4,25.8,,00.0,0635.3,31.1
2021-12-04T12:18:00Z,00000200,01000000,0001.45,0000.18,-000.14,-000.43,-000.20,-000.08,0000.20,-000.30,-000.01,19.5,25.8,,00.0,0635.3,31.1
2021-12-04T12:19:00Z,00000200,01000000,0000.13,-000.06,-000.01,-000.57,0000.08,-000.17,0000.10,0000.49,0000.26,19.5,25.9,,00.0,0635.3,31.1
2021-12-04T12:20:00Z,00000200,01000000,0000.78,0000.54,0000.47,-000.36,-000.13,0000.26,0001.04,0000.56,0000.74,19.5,25.9,,00.0,0635.3,31.1
2021-12-04T12:21:00Z,00000200,01000000,0003.85,0002.86,0002.86,0001.09,0000.53,0000.27,0010.54,0010.98,0010.64,19.4,25.9,,00.0,0635.9,31.0
2021-12-04T12:22:00Z,00000200,01000000,0000.94,-000.05,0000.06,-000.02,-000.34,0000.10,-000.09,-000.90,-000.21,19.4,25.8,,00.0,0635.9,31.0
2021-12-04T12:23:00Z,00000200,01000000,0001.31,0000.44,-000.03,0000.14,-000.12,0000.30,0000.32,0000.99,0000.55,19.3,25.8,,00.0,0635.9,31.0
2021-12-04T12:24:00Z,00000200,01000000,-000.10,0000.26,0000.12,-000.05,-000.20,0000.03,0000.10,-000.06,-000.19,19.3,25.8,,00.0,0635.9,31.0
2021-12-04T12:25:00Z,00000200,01000000,0000.63,0000.42,0000.14,0000.47,-000.12,-000.01,-000.15,0000.06,0000.26,19.3,25.8,,00.0,0635.9,31.0
2021-12-04T12:26:00Z,00000200,01000000,0000.69,0000.33,0000.04,-000.48,-000.11,0000.12,0000.29,0000.26,-000.10,19.3,25.8,,00.0,0635.9,31.0
2021-12-04T12:27:00Z,00000200,01000000,0000.34,-000.00,0000.22,0000.24,0000.02,0000.02,0000.13,0000.15,0000.01,19.3,25.8,,00.0,0635.9,31.0
2021-12-04T12:28:00Z,00000200,01000000,0000.76,0000.36,0000.15,-000.26,-000.28,0000.07,-000.13,0000.15,0000.34,19.4,25.8,,00.0,0635.9,31.0
2021-12-04T12:29:00Z,00000200,01000000,0000.28,0000.13,-000.26,-000.20,-000.02,0000.33,0000.33,-000.19,0000.24,19.4,25.8,,00.0,0635.9,31.0
2021-12-04T12:30:00Z,00000200,01000000,0000.19,0000.15,-000.04,-000.79,-000.45,-000.08,-000.15,-000.03,0000.13,19.5,25.9,,00.0,0635.9,31.0
2021-12-04T12:31:00Z,00000200,01000000,0000.40,0000.00,-000.06,0000.12,-000.18,-000.33,0000.42,0000.43,0000.03,19.5,25.9,,00.0,0635.9,31.0
2021-12-04T12:32:00Z,00000200,01000000,0000.51,0000.54,-000.24,0000.19,-000.23,0000.05,0000.01,0000.30,-000.32,19.5,25.9,,00.0,0635.9,31.0
2021-12-04T12:33:00Z,00000200,01000000,0000.22,0000.32,-000.01,0000.19,-000.15,0000.16,-000.09,-000.69,0000.10,19.4,25.9,,00.0,0635.9,31.0
2021-12-04T12:34:00Z,00000200,01000000,0000.73,-000.06,-000.05,-000.08,-000.36,-000.07,-000.03,0000.32,-000.35,19.3,25.8,,00.0,0635.9,31.0
2021-12-04T12:35:00Z,00000200,01000000,0000.68,-000.02,0000.10,-000.38,-000.29,-000.28,0000.36,0000.18,0000.41,19.2,25.8,,00.0,0635.8,31.0
2021-12-04T12:36:00Z,00000200,01000000,0000.37,0000.07,-000.16,-000.29,-000.19,-000.14,-000.11,-000.08,0000.21,19.2,25.8,,00.0,0635.8,31.0
2021-12-04T12:37:00Z,00000200,01000000,0000.65,0000.02,-000.24,-000.68,-000.23,0000.21,0000.04,0000.22,-000.19,19.1,25.7,,00.0,0635.9,31.0
2021-12-04T12:38:00Z,00000200,01000000,0001.12,0000.23,-000.06,0000.46,0000.22,0000.16,0000.08,-000.07,0000.35,19.1,25.7,,00.0,0635.9,31.0
2021-12-04T12:39:00Z,00000200,01000000,0000.38,0000.06,0000.35,-000.23,-000.09,0000.59,0000.09,-000.05,-000.27,19.1,25.7,,00.0,0635.9,31.0
2021-12-04T12:40:00Z,00000200,01000000,0000.63,0000.25,-000.35,-000.19,-000.22,-000.16,-000.28,0000.05,-000.15,19.2,25.7,,00.0,0636.0,31.0
2021-12-04T12:41:00Z,00000200,01000000,0000.66,0000.30,-000.11,0000.22,-000.45,0000.00,-000.04,-000.00,-000.10,19.2,25.7,,00.0,0636.0,31.0
2021-12-04T12:42:00Z,00000200,01000000,0000.20,0000.30,0000.04,-000.14,-000.11,-000.18,-000.12,0000.04,0000.09,19.2,25.7,,00.0,0636.0,31.0
2021-12-04T12:43:00Z,00000200,01000000,0000.26,0000.70,0000.07,-000.35,-000.27,0000.12,0000.12,-000.21,0000.06,19.3,25.7,,00.0,0636.0,31.0
2021-12-04T12:44:00Z,00000200,01000000,0000.82,0000.03,-000.14,-000.19,-000.40,0000.26,0000.15,0000.29,-000.01,19.3,25.7,,00.0,0636.0,31.0
2021-12-04T12:45:00Z,00000200,01000000,0001.37,-000.06,-000.07,-000.29,-000.06,0000.25,0000.18,0000.11,0000.02,19.3,25.8,,00.0,0636.0,31.0
2021-12-04T12:46:00Z,00000200,01000000,0000.42,0000.28,0000.13,-000.36,-000.26,-000.14,0000.16,-000.09,0000.18,19.2,25.7,,00.0,0636.0,31.1
2021-12-04T12:47:00Z,00000200,01000000,0000.22,-000.12,-000.01,-000.54,-000.24,-000.19,-000.02,-000.15,-000.17,19.2,25.8,,00.0,0636.0,31.0
2021-12-04T12:48:00Z,00000200,01000000,-000.11,0000.10,-000.26,-000.69,-000.02,-000.30,0000.22,0000.23,0000.37,19.1,25.8,,00.0,0636.0,31.0
2021-12-04T12:49:00Z,00000200,01000000,0000.46,0000.15,0000.17,-000.27,0000.20,0000.10,-000.33,0000.05,0000.35,19.1,25.7,,00.0,0635.9,31.0
2021-12-04T12:50:00Z,00000200,01000000,0001.35,0000.33,-000.15,0000.55,0000.00,0000.21,0000.75,0000.65,-000.10,19.0,25.7,,00.0,0635.9,31.0
2021-12-04T12:51:00Z,00000200,01000000,0000.32,0000.06,-000.13,0000.01,-000.16,-000.16,-000.10,0000.03,-000.02,18.9,25.6,,00.0,0635.9,31.0
2021-12-04T12:52:00Z,00000200,01000000,0000.44,-000.20,0000.21,0000.05,-000.11,-000.18,0000.35,0000.34,-000.21,18.9,25.6,,00.0,0635.8,31.0
2021-12-04T12:53:00Z,00000200,01000000,0001.16,0000.31,0000.11,0000.34,-000.19,0000.07,0000.22,-000.30,0000.27,18.8,25.6,,00.0,0635.8,31.0
2021-12-04T12:54:00Z,00000200,01000000,0000.61,0000.23,0000.01,-000.08,-000.19,0000.38,0000.35,0000.41,0000.15,18.8,25.6,,00.0,0635.8,31.0
2021-12-04T12:55:00Z,00000200,01000000,0001.37,0000.45,-000.33,-000.01,0000.04,-000.03,0000.16,0000.03,0000.12,18.8,25.5,,00.0,0635.8,31.0
2021-12-04T12:56:00Z,00000200,01000000,0000.36,0000.06,0000.08,0000.51,-000.16,-000.21,0000.24,0000.43,0000.36,18.8,25.5,,00.0,0635.8,31.0
2021-12-04T12:57:00Z,00000200,41000000,,,,,,,-000.15,0000.33,0000.20,18.9,25.6,,00.0,0635.8,31.0
2021-12-04T12:58:00Z,00000200,61000000,,,,,,,0000.01,-000.20,-000.09,18.6,25.7,,00.0,0634.8,31.0
2021-12-04T12:59:00Z,00000200,21000000,,,,,,,0000.07,0000.12,0000.39,18.6,25.8,,00.0,0634.8,31.1
